Volver al catálogo

CZ-4 DEB

ActivoSSO
NORAD 35319·DEBRIS·🇨🇳 China

Lanzado Oct 14, 1999 desde Taiyuan Satellite Launch Center

Loading…

Próximos Pases (próximas 24 horas)

TLE

EnvejeciendoSource: Space-Track

Época: Sep 11, 2026, 00:57 UTC

1 35319U 99057RX  26254.04008164  .00000539  00000-0  25679-3 0  9992
2 35319  98.6574 333.4707 0190394  98.7067  23.2719 14.13984657277134

Sigue CZ-4 DEB en tiempo real con AllMySat

Download on the App Store